SCP
0 0 0 0 0 0 0 0 0 0 0 0 0 0 0 1 2 3 4 7 11 11 10 8 8 9 10 12 12 9 6 5 6 7 6 6 5 4 4 4 5 6 6 7
0 0 0 0 0 0 0 0 0 0 0 0 0 0 1 2 3 5 7 10 12 12 11 10 9 10 11 12 12 9 7 6 7 7 6 6 5 5 4 4 5 5 6 6
0 0 0 0 0 0 0 0 0 0 0 0 0 0 1 2 4 6 8 11 13 14 13 12 11 12 12 13 12 10 9 8 8 7 7 6 6 5 4 4 4 5 5 6
0 0 0 0 0 0 0 0 0 0 0 0 0 0 0 2 5 6 7 10 14 16 15 13 13 12 12 12 12 11 10 9 8 7 7 6 6 5 4 4 5 5 5 5
0 0 0 0 0 0 0 0 0 0 0 0 0 0 0 2 4 6 8 11 14 15 14 13 12 12 11 11 11 11 10 9 8 7 7 7 6 5 5 5 6 6 6 6
0 0 0 0 0 0 0 0 0 0 0 0 0 0 1 2 5 7 9 11 11 10 9 9 9 9 9 9 9 9 9 9 8 7 7 6 6 6 6 6 6 6 6 6
0 0 0 0 0 0 0 0 0 0 0 0 0 1 2 5 7 9 10 10 8 6 5 5 6 6 6 7 7 7 7 7 6 6 6 6 6 6 6 6 6 6 6 5
0 0 0 0 0 0 0 0 0 0 0 0 0 1 3 5 7 8 8 7 5 4 3 3 3 4 4 5 5 5 5 5 5 5 5 5 5 5 5 5 5 4 4 4
0 0 0 0 0 0 0 0 0 1 0 0 0 1 2 4 5 5 5 4 3 3 3 3 3 3 3 4 4 4 4 5 5 5 5 5 5 5 5 4 4 3 3 2
0 0 0 0 0 0 0 0 1 1 1 0 1 1 2 3 3 3 3 2 2 2 2 2 3 3 3 3 3 4 4 4 4 4 4 4 4 4 4 3 3 2 2 1
0 0 0 0 0 0 0 1 1 1 1 1 1 1 2 2 3 2 2 1 1 1 1 1 2 2 2 2 2 3 3 3 3 3 3 3 3 3 3 2 2 1 1 1
0 0 0 0 0 0 0 0 0 1 1 1 1 1 1 2 2 2 2 1 1 1 1 1 1 1 1 1 1 2 2 2 2 2 2 2 2 2 1 1 1 1 1 0
0 0 0 0 0 0 0 0 0 0 0 0 0 0 1 1 2 2 1 1 1 1 1 1 1 1 1 1 1 1 1 1 1 1 1 1 1 1 1 1 0 0 0 0
0 0 0 0 0 0 0 0 0 0 0 0 0 0 1 1 1 1 1 1 1 0 0 1 1 1 0 0 0 1 1 1 1 1 1 1 1 1 0 0 0 0 0 0
0 0 0 0 0 0 0 0 0 0 0 0 0 0 1 1 1 1 1 1 0 0 0 0 0 0 0 0 0 0 0 1 1 1 1 1 1 0 0 0 0 0 0 0
0 0 0 0 0 0 0 0 0 0 0 0 1 1 1 1 1 1 1 0 0 0 0 0 0 0 0 0 0 0 0 0 0 1 1 0 0 0 0 0 0 0 0 0
0 0 0 0 0 0 0 0 0 0 0 0 0 1 1 1 1 1 0 0 0 0 0 0 0 0 0 0 0 0 0 0 0 0 0 0 0 0 0 0 0 0 0 0
0 0 0 0 0 0 0 0 0 0 0 0 0 0 0 0 0 0 0 0 0 0 0 0 0 0 0 0 0 0 0 0 0 0 0 0 0 0 0 0 0 0 0 0
0 0 0 0 0 0 0 0 0 0 0 0 0 0 0 0 0 0 0 0 0 0 0 0 0 0 0 0 0 0 0 0 0 0 0 0 0 0 0 0 0 0 0 0
0 0 0 0 0 0 0 0 0 0 0 0 0 0 0 0 0 0 0 0 0 0 0 0 0 0 0 0 0 0 0 0 0 0 0 0 0 0 0 0 0 0 0 0
0 0 0 0 0 0 0 0 0 0 0 0 0 0 0 0 0 0 0 0 0 0 0 0 0 0 0 0 0 0 0 0 0 0 0 0 0 0 0 0 0 0 0 0
0 0 0 0 0 0 0 0 0 0 0 0 0 0 0 0 0 0 0 0 0 0 0 0 0 0 0 0 0 0 0 0 0 0 0 0 0 0 0 0 0 0 0 0
0 0 0 0 0 0 0 0 0 0 0 0 0 0 0 0 0 0 0 0 0 0 0 0 0 0 0 0 0 0 0 0 0 0 0 0 0 0 0 0 0 0 0 0
0 0 0 0 0 0 0 0 0 0 0 0 0 0 0 0 0 0 0 0 0 0 0 0 0 0 0 0 0 0 0 0 0 0 0 0 0 0 0 0 0 0 0 0
0 0 0 0 0 0 0 0 0 0 0 0 0 0 0 0 0 0 0 0 0 0 0 0 0 0 0 0 0 0 0 0 0 0 0 0 0 0 0 0 0 0 0 0
0 0 0 0 0 0 0 0 0 0 0 0 0 0 0 0 0 0 0 0 0 0 0 0 0 0 0 0 0 0 0 0 0 0 0 0 0 0 0 0 0 0 0 0
Wind_Speed
9 9 11 12 12 14 16 15 16 13 12 13 13 12 10 7 7 7 7 8 8 7 9 7 6 7 10 10 9 7 7 6 5 4 5 6 5 4 3 2 3 3 3 3
7 11 13 11 9 11 12 14 15 16 6 2 6 9 11 11 6 5 6 6 8 6 6 5 3 2 2 5 6 6 6 5 5 4 3 3 3 3 4 4 4 5 5 4
10 7 4 5 8 11 12 14 15 17 15 8 8 14 16 12 8 9 8 5 5 6 6 4 1 2 3 3 2 2 2 2 3 4 3 3 2 3 4 5 5 6 7 7
9 8 5 9 11 12 12 11 13 15 14 11 11 13 15 16 14 12 11 8 7 7 7 7 6 7 7 6 6 5 5 3 1 1 2 4 4 5 5 4 5 6 7 8
6 6 7 10 11 11 12 10 11 13 13 15 15 15 14 15 15 15 14 12 9 7 7 8 7 7 7 7 7 6 6 6 4 2 1 2 2 3 3 3 4 4 5 6
10 8 9 10 10 9 10 11 12 12 12 18 18 18 17 15 11 14 15 13 10 7 6 6 6 5 5 5 4 5 5 4 3 3 3 2 3 3 4 4 4 3 3 3
9 11 12 11 12 11 10 10 10 12 14 17 17 18 11 7 6 19 18 14 11 7 6 5 5 4 3 3 2 3 4 3 3 3 3 3 3 3 3 4 4 4 3 2
10 10 7 8 10 10 10 12 10 11 14 14 11 6 5 12 13 14 13 12 10 8 6 5 4 3 2 2 2 3 3 3 3 4 4 4 5 4 4 5 4 4 3 3
7 7 5 6 7 10 11 12 13 13 16 18 15 12 7 7 9 12 12 11 9 7 6 5 5 4 4 3 3 4 4 5 4 4 3 5 5 5 5 5 4 4 4 3
9 12 12 10 8 10 11 11 8 6 8 11 14 17 4 5 5 7 9 10 9 7 7 6 5 5 4 4 4 4 5 5 4 4 4 5 5 5 4 5 5 5 4 3
8 11 13 11 8 11 7 7 8 6 5 7 8 5 3 4 6 8 8 7 7 6 6 6 6 5 4 4 4 4 4 4 4 4 4 4 4 4 5 4 4 3 3 3
8 8 9 12 9 5 2 1 2 2 7 7 7 6 1 2 7 10 11 9 7 5 4 5 6 5 5 4 4 3 3 3 3 3 3 4 4 4 4 5 4 4 4 4
7 6 9 10 4 2 2 4 4 4 3 7 8 7 2 1 4 7 8 8 6 5 4 5 5 4 4 3 2 2 2 2 2 2 3 3 4 4 4 4 4 4 4 4
4 9 12 14 13 15 12 11 9 7 7 9 12 15 9 5 4 7 7 7 6 5 4 4 4 4 3 2 2 1 2 2 1 1 2 3 3 3 3 4 4 3 3 3
5 8 11 13 16 16 17 16 13 11 11 11 13 13 11 6 6 7 7 6 6 4 3 3 3 2 2 2 2 2 1 1 1 2 3 3 2 2 2 3 3 2 3 5
4 8 12 15 16 15 15 14 12 12 11 10 11 9 1 2 5 7 7 6 5 4 3 2 1 1 2 2 2 2 2 2 2 3 3 3 2 3 3 2 2 2 3 3
8 10 13 14 15 14 12 7 7 9 9 8 8 4 3 5 5 6 6 5 5 3 2 2 1 1 1 2 2 2 0 2 2 3 3 3 4 5 5 5 5 5 4 4
6 8 8 13 13 12 5 2 5 7 7 6 3 1 1 3 4 5 6 6 6 4 4 3 2 2 2 3 3 2 2 3 3 3 4 4 4 4 4 4 5 5 4 4
6 5 7 9 11 10 6 2 2 6 8 4 1 1 3 4 5 6 8 8 7 6 4 3 3 3 3 4 3 3 4 4 4 4 4 4 4 4 3 3 3 3 3 4
8 7 8 10 12 12 6 5 1 6 5 3 0 2 3 4 4 2 10 8 6 5 3 3 3 4 3 3 3 3 4 4 5 4 4 3 3 3 2 2 2 1 1 2
11 11 12 13 13 9 5 5 3 6 1 1 4 3 4 3 2 6 9 7 6 5 5 5 5 3 2 2 2 4 5 6 5 4 4 3 2 2 2 2 1 0 0 1
9 9 10 11 11 4 5 2 4 3 2 5 6 5 4 6 8 8 8 7 6 6 6 5 4 2 2 2 4 5 6 5 5 4 3 3 1 2 3 2 2 1 1 1
7 7 6 6 6 3 4 4 4 3 4 6 6 5 4 6 8 7 7 6 5 4 3 3 3 4 3 4 4 6 6 5 5 4 3 2 2 2 2 2 2 2 2 2
8 5 7 7 8 8 7 6 5 6 6 7 7 6 6 7 8 8 7 6 4 3 3 3 3 4 4 4 5 6 6 5 5 4 4 3 2 2 2 2 2 3 3 3
12 10 9 10 10 12 12 12 10 8 8 8 8 7 7 7 8 9 7 6 5 4 4 4 4 4 5 5 6 6 6 5 5 4 4 3 3 3 3 3 3 3 4 3
12 12 11 11 9 9 7 7 8 9 10 9 9 8 8 8 8 9 9 8 6 5 5 4 5 5 7 7 6 6 6 5 4 4 5 4 4 4 4 5 4 2 2 4
Wind_Direction
208 239 246 241 240 257 280 298 300 282 255 211 212 238 242 211 190 181 161 149 147 152 158 176 197 186 174 173 173 179 189 192 192 192 196 200 206 208 218 219 202 188 190 190
223 236 251 280 319 312 299 291 291 298 297 208 235 255 259 246 193 130 108 113 126 139 140 157 184 190 162 157 166 180 198 201 200 205 211 214 209 210 215 225 222 220 222 226
258 290 331 290 284 274 272 271 272 279 288 253 239 255 256 243 180 142 136 128 111 126 130 130 109 32 42 72 131 178 179 201 218 220 214 226 216 224 224 227 230 230 231 232
272 277 290 280 268 258 261 269 276 275 279 273 248 252 241 232 211 177 157 149 121 89 79 71 61 47 45 49 63 69 70 68 57 208 208 226 227 235 241 239 240 234 232 236
274 295 274 262 272 285 283 308 318 298 285 281 270 264 261 251 218 186 157 141 122 97 82 71 60 55 51 53 59 67 71 66 55 49 91 262 267 280 290 282 264 252 241 236
273 265 266 277 286 289 294 298 293 280 273 264 261 264 264 266 242 163 129 123 118 107 92 81 73 69 62 61 69 79 84 81 74 62 58 36 9 349 336 331 316 299 277 256
281 272 262 258 264 265 266 270 272 262 248 252 254 255 276 326 83 129 131 130 122 117 109 98 87 78 77 85 95 110 113 111 102 85 63 47 25 355 2 357 351 350 341 338
280 281 286 260 264 278 277 273 265 272 274 282 289 291 34 60 78 96 108 115 120 125 124 117 110 99 87 97 113 119 111 99 80 74 63 46 30 25 31 27 17 22 20 24
288 299 316 289 275 280 280 271 276 276 277 280 275 262 171 131 124 121 122 122 125 126 124 115 101 88 76 70 66 78 93 90 81 72 77 65 49 45 43 41 35 35 30 30
290 297 296 294 275 268 280 290 278 267 269 265 263 262 251 158 130 124 129 131 133 137 131 117 99 84 71 68 69 75 85 82 73 61 33 72 67 66 60 54 53 46 37 35
296 294 295 293 285 288 316 337 336 314 271 269 270 269 82 98 124 131 131 132 137 141 133 123 111 97 81 73 73 73 79 80 72 71 64 55 66 80 79 62 52 44 29 12
312 304 299 296 309 337 336 7 44 327 305 292 286 281 36 127 138 148 152 150 143 132 127 115 104 98 87 71 66 68 68 66 65 72 82 74 63 59 70 67 48 39 27 9
339 309 294 288 273 29 290 254 211 192 252 277 278 284 347 28 113 130 140 137 128 119 109 94 82 70 67 62 57 67 81 71 50 62 104 96 85 72 63 62 47 33 24 19
293 273 280 291 301 307 292 274 244 224 240 260 266 281 279 264 188 145 141 136 133 122 106 92 91 80 60 41 10 26 72 66 62 56 81 92 86 77 69 64 57 37 22 26
245 276 288 294 297 297 298 299 293 276 273 274 285 291 299 270 203 165 158 157 154 142 120 93 86 78 42 23 352 3 59 62 45 77 76 75 74 77 78 71 58 40 18 33
260 285 291 288 291 295 295 298 309 311 311 307 302 309 335 144 157 157 166 175 177 169 153 137 82 48 34 355 338 353 37 56 63 77 77 60 47 47 45 57 59 49 43 33
289 297 297 293 298 298 291 311 322 313 317 315 313 325 171 163 174 175 176 184 186 182 190 191 191 290 320 312 316 298 162 118 92 84 76 60 50 50 37 31 38 30 24 24
263 291 290 284 289 285 300 341 303 307 313 319 315 295 190 147 155 164 171 181 184 197 211 215 230 247 266 282 273 234 197 156 134 109 81 60 55 59 50 45 40 24 18 17
192 257 284 287 288 293 297 233 278 313 308 320 278 192 164 151 175 185 178 181 187 195 202 208 225 247 257 269 258 212 191 168 140 110 92 73 61 62 52 48 40 24 16 15
176 205 247 271 287 293 297 123 45 295 275 60 23 214 197 216 248 208 167 175 180 179 186 216 241 246 249 255 237 204 181 145 126 112 99 83 67 61 53 57 48 26 9 17
206 218 236 257 274 291 92 112 270 284 84 148 296 269 221 211 103 121 150 165 169 189 202 216 236 242 242 230 182 161 132 126 126 124 115 97 72 62 64 54 52 42 46 61
257 266 268 269 268 288 78 306 327 52 144 267 279 267 208 154 146 158 164 166 185 207 211 209 215 202 175 168 151 142 134 132 135 138 133 121 82 29 63 61 63 59 73 99
253 254 280 300 321 346 277 294 302 277 262 272 269 251 194 181 178 175 167 174 198 213 206 206 197 176 163 161 155 148 143 145 144 143 140 130 109 69 55 60 73 78 76 79
300 258 244 260 275 291 296 281 245 239 243 258 258 239 203 197 187 173 170 176 193 199 193 198 191 173 160 155 153 149 149 154 161 158 148 140 132 116 90 58 60 73 76 80
301 306 288 270 261 260 263 264 252 232 221 235 248 233 211 203 188 171 171 173 182 187 183 179 181 173 156 157 158 157 159 166 171 165 159 156 155 140 130 103 73 80 79 86
276 281 279 283 292 281 278 281 266 231 214 221 239 235 209 200 190 178 174 170 175 177 173 177 173 165 158 159 159 161 166 176 177 175 175 177 175 172 166 154 144 73 111 145